GFSSGP_500_spd_000.txt.gz
Wind_Speed
12 16 17 18 16 14 13 12 11 10 8 6 6 6 8 9 13 14 13 10 9 9 12 15 16 18 18 18 20 21 21 20 21 23 25 27 28 26 22 23 20 17 15 14 13 11 12 11 10
13 16 18 17 16 13 11 9 8 8 7 6 6 7 9 12 13 13 11 9 7 7 11 13 16 19 19 19 19 19 19 21 21 24 25 27 27 27 24 20 20 20 20 18 16 15 14 15 15
16 18 18 15 14 13 11 9 7 7 7 6 5 6 11 13 15 12 10 7 7 8 8 10 14 18 20 20 19 17 18 20 21 22 23 25 28 28 25 25 23 22 20 21 19 18 19 18 17
18 19 16 13 10 8 8 8 7 7 7 6 6 7 13 13 14 10 7 6 6 7 9 11 16 22 24 23 19 17 16 17 19 20 22 25 25 27 29 27 24 22 21 22 24 23 23 21 21
18 17 13 9 8 7 7 8 7 7 6 5 7 10 13 16 14 11 6 2 3 6 9 12 19 23 24 24 23 20 17 17 19 21 22 24 25 27 29 30 26 25 23 26 26 25 25 24 23
15 15 12 10 9 8 7 8 8 7 6 7 9 11 15 15 13 11 7 1 3 4 9 15 20 22 21 23 23 23 22 22 23 24 25 26 27 29 28 30 30 27 27 27 28 29 28 27 25
15 12 11 11 8 9 9 9 9 9 8 7 11 13 15 17 16 12 6 4 5 9 13 18 22 22 20 21 22 21 20 21 21 23 25 28 31 31 32 32 32 30 29 29 29 30 29 28 25
15 14 12 11 10 9 10 10 11 8 7 10 10 14 17 17 15 13 9 8 9 13 18 21 21 21 23 23 21 21 22 23 24 26 27 29 29 30 29 31 32 31 30 32 31 33 33 31 30
14 13 13 12 11 9 10 11 11 10 10 11 13 16 17 16 15 14 12 12 14 19 22 22 25 27 27 26 25 23 23 24 25 27 29 29 28 29 30 30 31 33 34 34 35 36 36 36 32
14 14 12 12 11 11 12 12 13 11 11 11 16 16 16 17 17 16 15 17 20 24 26 26 29 30 30 29 27 26 26 25 24 25 24 24 25 29 30 31 31 33 36 38 38 39 40 41 38
15 13 13 14 14 14 15 14 15 12 12 13 19 18 18 19 20 21 22 23 25 26 27 29 31 31 32 31 29 29 30 26 24 23 24 26 27 29 31 33 35 36 38 39 41 42 42 43 44
16 14 15 15 17 17 17 15 17 15 13 15 17 24 22 23 25 26 26 26 26 28 30 32 32 32 32 32 31 31 29 25 24 25 26 27 28 32 35 37 38 41 42 43 43 43 45 46 45
17 17 17 18 19 19 19 18 18 17 18 18 19 21 24 25 26 26 27 25 27 30 33 34 34 35 34 33 33 32 29 26 26 29 30 31 34 38 42 42 41 41 42 43 43 44 45 47 47
20 22 20 20 20 21 22 22 20 19 21 21 22 22 23 25 26 26 25 26 30 33 35 35 36 36 35 35 34 31 27 25 28 32 33 36 39 42 43 43 42 41 40 40 41 43 45 46 48
23 24 23 21 22 23 26 23 21 26 26 25 26 25 25 26 25 26 26 30 32 34 35 36 36 36 36 37 35 31 27 28 32 35 37 39 43 44 43 42 40 39 40 41 42 43 46 49 51
26 26 26 26 25 27 30 23 28 25 29 27 28 28 27 27 26 26 29 31 34 36 34 35 37 37 38 39 36 33 30 31 35 38 40 45 45 43 42 43 42 40 41 42 44 47 50 51 52
28 28 30 31 28 32 31 28 32 26 33 30 30 30 27 27 26 28 30 33 36 36 36 37 38 38 39 41 38 34 33 36 39 42 45 48 46 44 46 46 46 46 47 49 50 51 52 55 59
35 30 33 35 31 35 32 31 35 31 33 33 30 29 28 27 29 30 33 37 38 38 39 39 39 40 41 42 37 36 37 40 43 46 49 49 49 50 51 51 51 53 54 56 57 57 60 60 62
36 34 36 36 40 34 34 36 37 36 33 33 30 32 31 29 31 32 35 39 41 41 42 42 42 41 42 41 38 38 40 44 48 49 50 50 53 54 55 56 58 58 57 60 62 64 65 67 71
38 39 40 40 44 40 36 40 37 36 34 32 33 34 31 32 34 34 36 42 45 43 43 43 42 42 42 40 40 42 45 48 50 52 51 53 55 56 57 60 62 63 65 68 69 73 78 81 86
41 42 42 45 46 43 44 41 38 37 36 33 34 36 32 34 36 37 39 44 46 44 43 43 43 42 41 41 43 46 49 49 53 54 52 57 58 59 62 65 68 70 72 76 80 85 91 95 97
44 45 46 45 48 46 46 45 41 35 34 35 36 34 33 36 39 41 43 45 45 44 42 42 43 42 41 43 45 48 49 51 55 53 56 59 62 64 66 69 72 75 79 85 91 97 102 107 106
47 47 46 46 47 47 48 49 39 38 37 33 36 34 33 38 41 44 47 45 44 41 39 42 42 43 44 46 47 48 51 54 54 54 59 63 64 67 70 72 75 79 88 96 102 106 106 93 84
46 44 45 45 47 50 44 44 42 38 40 40 38 38 37 40 44 46 46 44 41 38 40 42 44 43 44 45 47 50 53 54 54 58 63 64 67 70 71 75 79 89 97 105 108 99 88 81 76
45 44 45 47 49 48 43 46 44 42 41 42 41 42 40 44 45 45 44 41 38 38 41 42 42 41 44 48 51 52 52 53 56 61 64 66 69 71 75 78 87 96 104 107 97 88 81 70 60
43 45 47 48 46 46 47 50 46 42 42 42 42 43 42 45 46 45 42 39 37 39 40 40 43 46 48 49 50 51 51 54 58 63 65 68 69 74 77 84 93 101 106 94 86 79 68 53 36
47 50 42 47 47 49 48 47 43 42 43 44 42 40 39 44 45 43 40 38 39 40 41 42 45 46 46 48 49 50 52 55 61 63 66 68 71 74 80 89 97 103 94 83 73 70 53 26 18
49 49 49 48 50 51 50 47 46 45 48 46 40 41 41 42 42 40 38 38 39 40 42 44 44 45 47 48 48 51 53 57 61 65 67 70 72 76 83 92 101 91 83 71 69 60 26 18 17
49 49 53 51 52 53 55 52 47 49 50 48 47 45 43 45 42 38 37 38 39 40 43 44 44 45 47 48 50 51 52 58 61 65 66 69 73 79 85 96 89 80 77 64 67 33 22 17 17
59 57 57 61 57 57 58 59 52 51 51 51 49 42 40 45 45 38 37 38 39 41 43 44 45 46 47 48 50 50 55 58 63 63 67 70 75 80 88 90 75 74 75 60 60 26 21 22 22

GFSSGP_500_spd_003.txt.gz
Wind_Speed
12 13 15 14 14 16 15 12 12 10 10 9 5 5 8 10 13 13 12 9 8 6 13 15 16 16 17 17 17 15 15 15 17 18 19 22 25 24 21 20 22 21 19 16 14 11 10 11 11
12 15 18 17 17 17 15 14 11 9 8 8 7 7 8 11 9 11 8 8 7 8 9 11 15 18 20 20 19 16 15 14 15 16 18 19 21 23 23 22 19 18 20 20 21 20 16 14 14
13 16 18 18 18 14 12 11 10 9 7 9 8 7 9 12 11 9 9 6 5 5 6 7 12 16 21 21 20 16 13 14 15 16 17 18 19 20 22 23 23 20 19 18 19 20 20 20 18
15 16 18 18 12 10 11 10 9 9 9 7 7 9 11 13 12 9 6 4 4 3 5 9 13 17 22 22 24 23 17 14 16 17 18 20 21 21 22 21 23 22 21 20 21 22 21 21 20
17 18 16 12 11 9 10 9 9 8 8 7 9 11 13 16 13 10 7 3 1 2 4 8 14 20 22 24 27 27 23 17 17 17 19 21 23 24 24 24 24 23 22 22 21 21 23 22 21
19 17 15 13 11 10 9 9 9 9 8 9 10 12 15 16 14 13 8 5 3 3 6 11 16 21 23 25 27 26 22 19 18 19 20 22 23 24 24 23 24 24 23 25 24 23 23 24 23
20 16 15 11 9 9 9 10 10 9 7 10 11 14 16 18 19 16 13 11 7 7 10 14 20 23 25 27 27 26 24 22 20 20 21 23 25 24 23 23 24 25 26 25 26 26 26 25 26
18 18 16 12 11 8 11 11 11 8 11 10 13 14 19 23 22 18 16 15 14 13 14 19 23 25 26 27 28 28 25 22 23 23 24 23 21 19 20 23 25 26 26 28 28 29 30 30 28
18 16 15 13 9 8 12 13 12 12 11 10 16 19 19 21 22 20 20 19 18 18 19 22 25 27 28 28 29 26 24 25 26 25 23 18 16 19 20 21 23 25 27 29 31 33 33 33 32
16 16 14 11 10 13 13 15 15 11 13 13 17 19 19 21 22 22 22 21 21 21 24 26 26 28 30 30 30 27 26 27 27 26 22 19 20 21 22 25 26 29 31 32 33 34 35 36 34
16 14 14 15 14 13 15 15 17 13 15 13 18 21 21 22 23 22 23 24 25 26 27 26 27 30 32 32 30 28 27 28 28 25 22 22 23 23 26 30 34 35 35 36 35 34 33 34 34
16 15 16 16 18 15 19 16 20 17 16 16 20 23 26 26 26 26 27 29 28 27 25 27 30 32 32 31 30 28 28 28 28 25 24 23 24 25 29 33 35 37 38 37 36 36 34 33 32
18 17 19 19 21 19 20 20 22 21 19 20 23 24 26 29 29 29 28 28 27 26 27 29 32 33 32 31 30 29 29 28 28 26 26 27 28 30 32 36 38 38 36 34 33 34 35 35 35
22 22 24 21 22 22 23 23 22 24 24 24 24 27 27 29 32 31 31 28 26 27 29 31 32 32 32 32 32 32 32 31 29 28 29 29 31 33 35 40 39 37 35 34 36 35 36 37 38
26 26 25 23 25 25 27 23 23 32 26 27 28 29 30 31 32 32 31 27 26 29 30 31 31 32 33 33 33 34 35 34 30 29 30 31 33 35 39 40 38 37 38 40 41 42 41 42 42
29 29 26 28 28 29 32 23 28 30 27 33 31 31 33 34 34 32 29 28 27 28 30 32 33 34 35 34 35 36 36 34 31 31 32 33 36 38 41 41 40 41 43 44 45 46 47 49 50
29 30 33 33 31 34 34 29 30 32 31 34 35 34 34 34 33 32 29 29 27 28 32 33 36 36 37 36 37 37 38 35 34 34 36 37 39 41 45 45 45 47 48 48 48 49 50 52 54
35 37 35 36 34 37 35 31 34 34 34 36 38 36 35 34 32 35 30 29 30 30 32 35 37 39 40 39 39 38 38 37 36 37 39 40 41 46 49 48 50 51 52 52 52 55 57 59 61
38 38 36 37 40 41 36 31 35 39 35 35 37 41 39 35 36 36 32 32 33 35 35 37 40 43 42 41 39 39 39 38 39 40 41 42 46 51 51 51 52 55 54 54 57 60 62 65 66
39 42 39 42 42 44 42 33 38 39 39 39 39 41 38 38 37 36 35 35 36 38 39 42 44 43 43 42 40 40 40 41 42 42 43 46 50 53 52 53 57 56 57 61 64 66 68 70 76
41 44 44 46 48 46 45 42 42 41 41 40 40 39 41 39 38 37 36 36 40 40 42 45 46 46 44 43 41 42 42 43 43 44 46 50 53 52 53 57 58 59 63 66 68 71 74 81 91
46 45 48 48 49 49 49 49 45 43 41 42 39 41 40 41 41 36 35 38 41 43 44 47 46 45 44 42 43 41 42 42 44 47 50 53 52 53 56 58 60 64 67 69 72 77 86 95 104
50 50 50 50 50 53 52 56 46 44 43 43 41 42 38 42 42 33 33 38 42 45 47 46 47 45 43 41 41 40 42 45 48 50 51 52 53 55 58 60 64 67 69 72 79 87 96 105 107
50 50 48 50 52 56 51 52 45 44 44 42 40 39 39 41 39 35 36 40 44 47 47 45 45 44 41 40 40 42 46 48 47 49 51 51 52 56 58 63 67 68 71 78 87 95 106 97 97
46 46 47 52 55 54 49 52 48 45 46 47 41 40 38 41 42 38 42 44 45 45 43 43 43 41 40 40 43 46 46 46 48 49 50 51 52 56 61 65 66 69 75 84 93 100 95 91 80
47 48 51 54 55 53 51 57 49 46 41 45 42 40 39 40 40 40 43 42 43 42 41 42 41 41 40 42 44 44 46 47 48 49 50 50 53 58 63 65 68 72 80 88 91 90 82 87 73
51 54 44 49 53 56 52 49 44 42 40 39 38 37 35 40 36 38 41 41 41 40 40 41 39 39 40 42 43 44 46 46 46 48 48 50 54 60 63 65 69 75 82 90 85 76 77 80 52
56 53 53 54 56 55 53 51 47 41 40 38 38 37 36 40 36 40 40 39 40 39 39 37 37 39 41 41 43 44 45 45 46 48 49 51 57 62 63 66 69 77 85 89 76 75 73 70 33
57 58 59 55 55 57 58 57 46 42 41 41 41 41 39 41 39 42 40 39 36 38 37 36 37 39 41 42 44 44 44 45 47 48 49 53 58 61 63 65 70 79 86 83 69 68 69 57 26
59 59 57 62 64 61 62 64 45 46 48 45 46 43 41 43 41 42 44 42 37 38 37 37 38 39 42 44 44 44 44 45 47 47 51 55 59 60 63 66 71 79 85 75 65 63 61 47 29

GFSSGP_500_spd_006.txt.gz
Wind_Speed
13 14 14 15 14 14 17 17 15 13 11 9 8 8 8 9 9 10 13 8 6 6 11 12 13 17 18 18 18 15 13 12 12 13 14 16 17 18 18 16 13 13 15 17 18 18 16 12 8
11 13 15 15 17 20 18 16 16 14 11 8 7 7 8 12 9 8 8 7 5 4 5 6 9 13 17 18 19 19 17 15 14 14 15 15 15 16 17 17 17 15 14 14 14 14 15 15 17
12 13 16 17 19 16 17 16 14 12 11 9 7 8 10 14 12 9 7 6 4 2 1 4 8 13 17 17 20 21 23 17 14 13 14 16 16 15 16 15 16 16 16 17 16 15 15 15 14
12 13 17 17 13 11 12 12 12 12 12 9 9 10 12 14 12 10 9 5 3 3 3 5 9 15 18 20 22 24 24 21 16 16 16 16 18 17 16 16 16 16 16 16 16 17 17 16 15
14 15 17 16 12 13 12 11 11 11 11 12 10 11 13 15 13 12 8 7 6 8 8 9 11 16 20 21 24 25 25 22 19 18 19 20 21 20 19 17 17 18 18 17 19 18 18 20 18
15 16 17 17 14 14 13 12 12 12 12 11 10 13 15 15 16 15 12 9 10 9 8 9 13 18 21 23 24 25 25 23 21 20 20 22 22 21 16 16 17 18 18 18 18 19 20 21 23
17 19 19 14 12 12 13 14 14 12 12 13 12 14 16 18 20 17 14 13 12 11 10 12 16 21 23 24 25 25 25 23 21 22 24 24 22 20 17 16 17 18 19 20 21 22 22 23 24
20 22 20 16 15 11 16 14 12 12 12 14 14 15 16 19 24 21 19 17 17 17 16 16 19 23 25 25 26 27 26 24 23 24 24 24 19 14 15 17 18 19 20 22 24 25 26 25 25
22 22 18 15 11 12 15 14 13 13 13 14 16 16 17 21 25 24 23 20 21 21 20 20 23 25 25 26 27 28 27 26 26 26 27 25 18 15 17 18 21 24 25 26 26 27 27 26 27
21 20 19 14 14 16 16 14 15 14 15 13 18 19 20 21 24 26 26 26 25 24 23 23 26 24 25 27 28 28 28 27 27 28 29 28 21 19 19 21 24 27 28 28 29 28 27 27 26
19 19 17 18 18 17 17 16 17 17 17 18 19 23 21 23 23 27 28 27 27 27 26 26 25 24 27 29 29 28 28 27 27 29 30 28 23 21 21 23 25 27 29 32 32 28 25 25 25
18 19 18 19 19 19 19 19 21 18 19 21 21 23 24 25 27 28 30 28 29 29 30 26 24 26 28 29 29 28 28 27 27 29 30 29 24 23 25 27 28 29 32 33 31 29 28 27 27
18 19 19 23 23 21 21 20 22 21 21 25 25 24 25 28 30 30 30 31 31 29 29 26 26 27 28 29 29 30 29 29 29 30 31 30 27 26 28 30 31 31 33 33 31 30 33 34 36
22 23 25 26 25 25 23 23 21 23 26 27 27 28 27 28 32 34 33 33 34 32 29 28 27 27 28 30 30 31 31 31 31 32 33 30 29 29 31 32 32 34 35 35 34 35 37 38 39
25 26 27 25 28 29 29 24 21 31 27 27 29 32 32 31 33 33 36 35 35 33 29 30 28 28 29 31 33 34 34 33 32 33 33 32 32 32 33 33 34 34 37 38 38 39 41 41 42
28 29 28 27 32 33 34 24 28 32 30 30 32 32 32 33 34 36 37 35 35 34 32 31 30 29 30 32 35 36 37 36 34 35 35 33 33 34 36 35 35 38 41 42 41 42 42 43 43
30 30 31 34 34 36 36 31 31 35 34 34 34 33 32 34 34 34 37 38 37 35 34 32 30 29 31 35 37 38 39 38 36 36 36 34 35 36 36 36 39 42 44 43 43 43 45 45 45
35 38 37 35 33 38 39 34 34 37 39 37 35 35 35 35 33 40 39 36 36 35 36 35 32 31 34 37 39 40 41 40 37 38 37 37 37 38 38 39 42 45 46 46 47 48 49 50 52
40 40 40 36 39 43 43 40 32 39 42 39 37 36 37 37 40 41 39 36 36 36 38 38 35 35 37 40 43 43 43 42 39 40 39 39 38 38 41 43 45 47 48 50 51 53 53 56 61
42 43 42 40 42 49 48 43 37 40 40 41 38 39 39 40 42 42 40 38 36 38 40 41 38 38 41 43 46 46 45 43 41 41 41 40 40 43 44 46 47 49 50 52 55 56 59 64 66
43 44 45 47 48 50 51 45 42 37 39 40 41 41 41 40 42 43 42 39 39 39 42 43 40 41 43 46 48 47 45 42 42 41 41 41 44 45 46 47 49 50 52 54 57 62 64 66 69
46 44 50 51 53 52 52 53 46 43 41 40 41 42 43 43 41 43 42 39 40 41 42 42 42 43 46 48 48 47 44 42 42 41 43 45 46 46 47 48 50 51 53 57 62 65 67 70 72
50 50 52 54 56 57 55 59 51 47 42 40 43 45 41 40 42 43 41 41 39 39 41 42 41 45 48 47 46 44 42 42 42 43 46 46 46 48 49 49 49 51 55 60 65 67 68 73 78
49 51 51 52 55 62 53 56 51 48 46 45 42 41 41 39 39 42 43 40 35 38 41 40 44 47 45 45 43 42 42 41 43 45 46 46 47 48 49 48 50 53 57 64 66 68 71 77 87
44 46 49 55 59 59 50 55 54 45 42 43 45 44 37 36 39 39 42 41 37 40 43 43 45 44 44 41 40 41 41 41 44 45 45 46 46 47 47 49 51 55 60 64 67 69 75 82 90
52 50 55 59 58 56 54 60 46 41 37 34 39 41 37 33 32 37 41 36 35 42 42 41 41 41 39 38 40 40 40 42 43 45 45 45 46 47 49 49 53 57 61 64 67 70 77 84 88
59 62 52 53 57 60 61 56 48 40 37 35 31 37 37 33 32 32 35 29 34 37 38 37 38 39 37 38 39 40 41 42 44 45 45 45 46 48 49 50 54 57 60 64 67 72 79 84 76
66 61 63 61 63 65 64 60 50 43 40 37 36 35 34 34 32 33 29 30 37 37 36 35 36 36 37 38 39 40 40 42 45 45 45 45 45 48 48 51 54 58 61 64 67 74 81 84 67
65 67 64 65 65 67 68 65 47 44 45 41 39 35 33 35 33 37 31 34 39 37 33 32 36 36 36 39 40 40 41 43 45 44 44 44 46 47 49 51 55 58 60 64 68 75 81 74 63
65 65 66 67 71 71 71 72 50 46 45 45 42 38 35 37 36 42 40 37 39 40 35 36 36 37 38 40 40 41 42 45 44 42 43 45 46 47 50 52 55 57 60 65 70 76 83 64 60

GFSSGP_500_spd_009.txt.gz
Wind_Speed
13 13 14 15 15 14 10 14 16 14 16 12 12 12 11 7 7 8 9 8 10 6 5 7 12 15 17 18 18 19 20 17 14 15 14 13 13 14 15 15 15 14 13 12 12 12 13 13 15
11 11 13 15 15 13 16 17 15 14 13 11 9 9 8 10 9 6 6 5 5 3 2 5 10 13 15 17 19 21 22 20 17 15 16 16 15 14 14 13 12 12 12 12 12 11 11 12 13
11 10 14 16 14 18 17 17 14 12 12 9 9 8 9 12 8 9 6 6 4 4 4 5 7 11 14 17 20 22 23 21 18 16 16 17 19 17 16 15 15 14 14 13 13 12 12 11 11
10 12 14 16 15 16 14 12 12 12 11 10 9 9 12 14 11 9 9 7 6 6 7 8 9 11 15 19 21 24 24 22 19 17 18 19 20 20 18 15 14 14 16 16 16 15 15 15 12
12 13 13 14 16 15 15 14 13 11 12 10 10 11 13 18 14 11 10 8 7 9 10 10 12 13 17 20 22 24 23 23 21 19 18 19 21 20 18 15 13 14 14 15 15 17 18 19 19
14 14 13 16 17 14 14 14 12 14 14 12 12 12 14 17 16 15 14 11 11 12 13 14 15 15 19 22 23 24 23 24 22 22 23 23 23 22 16 11 11 13 15 16 17 18 19 20 21
17 15 15 18 15 12 13 12 13 14 16 16 15 14 13 16 20 20 17 15 16 17 18 18 17 18 22 24 25 24 25 26 24 23 24 25 23 22 17 13 14 14 15 18 20 21 20 20 19
19 17 18 16 15 15 15 13 13 15 17 17 15 14 15 18 20 22 21 20 20 21 21 21 20 21 24 25 25 25 26 26 25 25 26 27 24 20 15 14 16 17 19 21 21 21 22 22 21
21 19 18 17 15 16 15 15 15 17 19 18 16 16 16 20 23 24 24 25 25 24 24 23 22 22 25 25 25 27 27 26 25 25 27 28 27 20 15 16 17 19 21 21 22 24 25 24 22
22 21 22 20 16 19 20 15 17 18 19 19 20 19 19 21 21 23 27 29 29 28 28 26 24 25 26 24 26 27 27 26 27 27 27 28 28 23 18 19 20 22 22 23 23 25 25 23 22
21 21 25 21 22 23 20 18 18 18 19 22 21 22 19 23 23 25 28 30 31 31 31 29 27 27 25 24 25 27 27 27 27 27 27 29 30 26 21 22 24 25 26 26 26 26 27 24 24
20 23 24 23 23 22 22 22 19 19 21 22 23 23 23 23 27 30 30 30 32 32 33 32 30 26 25 25 25 26 27 28 28 28 29 29 30 28 24 24 26 28 28 28 28 28 28 27 27
21 23 24 25 24 23 23 23 23 18 23 25 27 24 25 27 28 32 33 33 34 33 36 35 31 28 26 25 26 26 27 29 30 30 31 30 30 29 27 27 28 29 31 30 29 29 31 32 32
23 24 26 26 26 24 26 26 24 21 27 27 26 27 28 27 31 33 34 36 37 39 39 38 35 31 28 26 27 28 28 30 32 33 33 32 31 31 29 30 31 32 33 32 31 33 34 35 35
25 26 27 26 29 30 31 29 21 30 29 28 29 30 31 30 30 32 36 38 39 40 41 40 38 33 30 28 28 28 29 30 34 35 34 34 33 32 31 31 33 34 34 33 34 36 37 36 38
28 29 28 25 32 36 37 27 28 34 31 31 33 32 33 32 32 32 35 38 40 41 40 41 39 36 33 30 29 30 30 32 34 37 36 36 34 34 33 33 35 36 35 35 37 39 37 38 38
30 31 32 33 34 39 40 35 30 38 37 36 35 35 36 35 34 33 36 38 40 41 41 43 42 39 37 33 32 33 33 35 36 38 39 37 36 37 36 36 37 37 37 39 41 40 39 39 41
37 40 38 37 34 40 43 40 35 39 42 42 38 38 38 37 34 38 40 41 41 39 39 41 41 41 40 37 36 36 37 38 40 41 40 38 38 39 38 38 37 37 41 42 41 41 41 42 44
40 41 41 38 38 44 45 47 39 40 46 41 39 41 40 38 39 41 41 41 39 38 38 41 42 43 43 41 39 39 40 42 43 43 42 39 39 41 41 39 40 42 43 43 42 42 44 46 48
41 43 42 40 40 50 51 50 47 40 42 44 43 43 42 43 44 44 44 43 40 39 40 42 43 45 44 42 42 42 44 45 46 45 43 40 40 42 42 42 43 43 44 44 44 45 47 49 53
41 43 44 46 47 52 56 53 49 44 43 45 46 43 46 46 47 47 46 46 46 40 40 42 44 44 44 43 44 44 46 46 47 46 43 41 41 43 43 43 44 44 45 45 47 47 50 53 56
48 45 49 51 55 56 54 60 52 48 46 43 42 43 46 48 48 48 47 47 45 40 43 44 43 42 44 45 45 45 47 47 48 44 42 41 42 44 44 44 45 45 45 47 47 50 53 56 60
52 51 53 55 59 61 59 65 55 56 49 43 40 45 46 47 44 45 44 44 44 45 44 44 42 41 46 46 45 46 48 48 46 42 41 41 42 44 45 45 45 46 46 47 50 53 56 58 65
53 57 57 58 62 67 62 63 61 55 55 49 42 42 44 42 42 40 42 43 41 41 41 40 38 41 44 44 45 48 48 47 43 41 41 41 42 44 45 46 46 47 48 49 52 54 58 63 66
55 57 61 65 69 71 66 65 65 58 52 47 41 35 35 38 38 38 38 37 39 40 39 37 37 41 44 45 47 48 46 43 41 41 40 41 42 44 47 47 47 48 49 50 52 55 60 64 67
66 63 66 70 71 69 68 75 67 61 55 49 44 33 35 36 34 33 30 37 40 39 38 33 38 44 44 44 45 45 41 41 40 40 40 41 42 45 48 48 47 48 49 50 53 56 61 64 67
63 69 66 69 74 76 79 77 73 64 56 51 45 43 35 33 28 28 29 32 35 36 32 35 40 39 38 42 43 41 40 40 39 39 39 41 44 46 48 47 47 48 49 51 54 57 61 64 67
68 67 70 72 74 79 83 82 76 66 61 51 48 48 40 32 30 26 28 30 32 33 35 38 40 38 38 40 40 39 39 39 39 39 40 42 44 46 46 47 47 48 50 52 56 58 61 63 67
72 73 69 65 66 75 80 84 75 70 62 58 54 52 46 36 33 29 30 30 32 33 36 39 39 35 37 38 40 39 39 39 39 40 41 42 44 45 45 47 46 49 50 54 56 59 60 63 67
84 80 79 79 80 77 80 88 73 68 61 58 59 56 49 40 37 36 33 34 35 35 38 39 41 38 40 40 41 40 39 39 40 41 41 43 45 44 44 46 47 50 51 53 56 59 60 63 68

GFSSGP_500_spd_012.txt.gz
Wind_Speed
15 14 14 12 11 10 8 8 19 17 13 10 11 10 9 9 6 5 2 3 5 6 7 9 10 12 15 16 20 23 24 20 18 18 18 18 16 17 17 16 15 15 15 13 10 10 11 12 12
12 13 14 12 12 11 11 13 17 18 14 10 10 10 10 10 8 3 6 3 3 2 2 6 8 10 13 15 19 22 24 22 18 16 16 17 18 17 16 14 14 12 13 14 13 11 9 9 9
11 10 12 13 12 13 13 14 16 15 14 10 9 10 10 12 10 6 5 4 3 3 5 7 9 11 13 16 20 22 24 23 20 18 16 16 19 20 19 16 13 11 12 13 14 14 13 11 11
10 11 11 12 13 14 13 14 13 13 14 11 10 11 12 12 10 9 7 6 6 7 8 10 12 14 15 17 20 23 24 23 22 18 17 18 20 20 19 17 12 9 11 11 12 13 14 14 10
11 11 9 9 13 15 14 14 13 13 13 11 12 11 12 12 14 13 10 10 10 11 11 13 14 16 17 19 22 24 24 23 23 19 18 19 21 21 20 14 9 9 10 10 11 13 15 14 13
14 12 10 9 14 17 13 14 12 14 14 13 13 12 12 14 17 16 15 14 13 14 14 15 18 18 19 21 23 25 23 23 23 21 21 21 22 21 21 13 8 10 10 13 14 15 16 16 13
15 15 11 12 17 15 13 13 14 15 16 15 15 12 13 17 18 20 19 18 18 18 18 19 20 22 23 22 24 24 24 25 23 22 22 23 23 21 19 15 11 12 13 15 17 16 16 17 17
17 17 13 12 15 14 14 13 14 16 17 18 17 17 15 16 20 21 22 22 22 21 22 23 24 24 24 24 25 24 25 25 23 22 23 23 23 23 18 16 14 15 15 17 18 18 17 18 17
20 17 14 14 17 15 16 15 15 16 17 18 19 19 18 17 19 21 22 25 26 26 26 27 27 26 25 25 25 24 24 23 23 23 23 22 23 23 21 16 17 17 18 19 21 20 19 19 19
21 19 19 20 19 17 20 17 15 16 18 20 21 20 19 19 20 22 24 26 28 30 31 31 30 28 25 26 25 24 24 22 23 24 25 24 24 23 23 20 18 20 21 22 23 23 21 20 20
21 21 24 22 22 21 24 19 17 17 18 23 22 22 21 21 21 23 26 27 29 31 33 34 33 31 26 27 25 24 24 23 24 25 26 27 27 25 24 23 22 22 23 25 26 25 24 22 21
19 22 25 24 24 24 24 22 19 18 22 22 23 24 23 23 23 26 27 29 30 32 34 34 36 33 30 27 27 25 25 24 25 26 27 28 29 29 27 25 25 24 25 26 28 27 26 24 24
20 23 23 25 24 25 26 24 24 18 26 23 24 24 24 25 26 27 30 30 32 34 36 37 38 37 35 31 29 27 26 26 26 26 28 29 29 29 29 27 27 27 27 28 30 30 30 29 29
21 23 24 24 24 25 26 28 24 19 31 26 26 25 26 27 29 30 30 33 34 36 38 40 40 40 39 37 32 30 28 28 27 26 28 29 30 30 30 29 29 29 29 30 32 32 31 31 32
24 25 26 25 26 29 32 31 19 29 34 30 29 30 29 27 29 29 32 34 37 38 40 40 41 41 42 40 35 32 31 30 29 28 28 30 31 31 30 31 31 31 30 32 34 33 33 35 36
28 28 27 25 30 34 38 30 23 34 37 33 35 34 33 32 32 30 31 35 36 39 40 41 41 42 42 40 38 35 35 33 32 32 32 32 34 33 31 31 33 33 33 34 34 33 35 37 39
30 32 33 33 35 38 40 38 24 35 39 37 38 37 37 35 35 33 36 37 39 41 41 41 42 43 43 43 41 39 39 37 36 36 36 35 36 36 34 33 34 35 35 35 34 36 39 39 38
36 39 37 37 34 41 43 43 34 38 41 42 40 39 39 39 36 40 41 40 41 43 42 41 41 42 43 43 42 42 42 41 39 39 39 39 38 39 37 35 35 36 36 37 38 40 40 38 38
39 41 41 37 38 45 47 49 45 40 46 44 40 41 41 39 40 43 42 44 44 43 41 39 40 42 45 44 44 45 44 43 42 42 43 42 41 41 40 36 36 37 38 40 41 40 40 39 38
42 44 43 42 41 49 52 51 49 46 44 46 47 44 41 43 44 45 46 47 45 45 45 42 42 44 46 46 46 47 46 43 44 44 45 45 44 43 42 37 37 38 39 40 40 39 40 40 41
45 47 48 49 47 49 56 51 50 47 47 46 47 47 46 44 45 48 50 49 49 47 46 44 45 47 48 48 47 45 44 45 45 45 45 45 45 44 41 39 38 39 40 41 41 41 41 42 45
49 49 54 56 59 58 55 61 54 49 49 47 46 45 48 48 48 49 50 50 50 48 49 47 46 46 49 48 45 43 45 47 44 44 45 45 46 45 41 39 38 40 40 42 43 44 43 45 47
52 54 54 57 60 63 60 66 49 54 52 51 48 49 49 51 53 51 51 51 50 51 49 47 46 48 47 45 42 45 47 46 43 44 46 46 47 44 40 39 39 40 41 43 45 44 46 48 50
55 58 62 64 66 68 62 68 55 54 60 59 54 50 44 45 50 52 52 50 48 49 47 45 44 43 41 42 44 46 47 44 43 46 46 48 45 41 39 39 40 40 43 45 45 45 48 51 52
56 60 65 69 71 69 70 73 57 58 62 62 61 58 45 41 44 46 47 48 49 47 41 45 44 43 41 41 43 45 45 43 45 47 47 47 43 41 38 38 40 41 43 45 44 47 50 52 52
58 63 66 72 73 73 74 77 66 65 63 63 63 64 55 43 45 46 46 45 46 43 44 44 42 40 38 40 43 46 46 45 48 48 47 43 41 40 38 39 40 42 44 45 46 48 50 52 53
67 67 68 75 79 82 82 80 75 70 68 67 67 64 59 51 48 45 43 41 42 43 44 41 42 40 40 41 45 47 48 47 46 45 44 41 41 39 39 39 40 42 44 45 47 48 51 52 54
75 78 80 77 79 86 87 87 83 78 76 73 71 70 66 60 60 49 43 41 44 43 41 41 41 38 41 44 46 42 44 46 45 44 41 41 40 39 39 40 41 43 44 46 47 50 52 51 54
87 84 78 81 82 78 88 94 86 85 83 80 75 68 60 54 59 50 43 45 43 44 44 45 40 41 43 44 41 40 43 43 42 42 41 42 40 39 39 40 41 43 44 46 48 50 50 51 55
91 86 82 81 75 72 77 92 88 89 89 86 83 77 65 52 46 45 43 46 45 44 45 45 43 43 41 40 40 41 43 43 42 43 43 41 39 39 40 40 42 43 43 46 48 48 49 52 55

GFSSGP_500_spd_018.txt.gz
Wind_Speed
11 10 8 6 6 8 7 7 13 15 15 13 10 7 7 6 2 2 0 2 2 3 5 7 10 14 16 18 20 22 21 21 19 16 15 15 15 14 14 13 11 8 8 9 7 7 6 6 6
10 9 8 7 7 8 9 9 10 17 16 14 12 9 9 6 5 4 3 3 4 4 5 6 8 12 14 17 18 20 20 20 19 15 13 14 15 14 14 14 10 6 7 8 7 7 5 5 4
10 10 9 8 9 10 10 10 12 18 17 14 12 11 10 9 8 7 6 6 7 6 7 6 7 10 13 16 18 19 19 19 19 15 13 13 13 14 15 15 10 4 7 7 7 8 7 6 6
9 9 6 7 10 12 12 12 13 17 18 15 13 13 12 11 10 10 10 10 10 10 9 8 8 10 12 15 18 18 19 20 19 14 11 12 13 15 16 15 9 3 5 7 9 10 10 8 7
10 9 7 6 10 13 14 14 15 20 19 17 15 15 13 13 12 13 13 13 14 13 13 12 10 12 14 16 17 19 19 18 18 14 11 11 13 14 15 16 9 4 5 7 10 12 10 9 9
11 10 8 7 10 13 16 15 16 19 20 19 18 16 15 15 14 15 15 16 16 17 17 17 15 15 16 17 18 19 19 17 16 15 13 11 12 13 16 15 13 7 8 8 11 11 11 10 9
12 11 9 10 10 12 16 17 16 18 18 18 18 17 18 15 14 16 18 18 19 20 21 21 20 19 19 19 20 20 20 18 16 15 14 11 11 12 14 15 15 11 10 11 11 12 12 12 10
15 14 11 13 14 11 15 17 15 16 18 19 18 16 20 17 16 16 19 20 22 24 25 25 24 22 22 22 22 22 21 20 17 16 15 13 12 12 13 14 14 15 12 12 13 13 13 14 14
20 17 15 17 17 14 15 17 16 16 16 20 20 21 22 20 19 19 20 22 24 26 28 27 27 26 26 25 26 24 22 22 19 17 16 16 15 15 15 14 14 13 14 14 13 15 15 16 16
22 19 18 19 19 17 17 18 19 16 17 20 22 25 22 21 22 22 22 24 25 26 26 27 27 28 28 28 29 27 25 23 22 20 19 17 17 17 17 16 14 14 13 14 16 16 17 18 17
19 19 18 19 20 19 19 20 21 19 16 23 24 23 22 24 24 24 25 26 26 26 26 28 28 29 31 31 30 30 27 25 25 24 22 21 19 18 18 17 17 16 15 16 16 17 18 19 19
19 20 19 20 21 20 21 21 23 21 21 24 24 22 22 25 25 26 26 28 28 26 27 29 31 32 33 33 33 32 30 29 28 27 26 24 22 19 18 17 17 18 19 18 18 19 19 20 21
18 20 20 20 21 22 21 23 24 19 25 28 27 25 26 26 26 27 29 28 30 29 31 32 33 34 34 35 35 35 34 33 31 30 30 28 27 25 22 20 19 19 20 21 21 21 22 23 23
21 22 22 21 24 24 24 22 21 24 33 32 29 29 30 29 29 30 28 31 32 34 34 36 36 35 36 36 37 38 38 37 35 34 33 31 30 29 28 26 24 23 22 23 24 24 24 24 26
25 24 24 24 27 28 28 19 21 32 33 32 34 34 34 32 32 30 32 33 33 34 35 36 38 37 37 38 38 39 41 40 39 38 36 34 34 33 33 32 30 28 26 25 26 26 27 27 27
27 28 26 25 28 31 33 20 27 30 34 36 37 37 37 36 36 35 36 35 37 39 38 40 40 39 39 39 40 40 41 42 41 40 39 37 37 37 36 36 35 33 31 29 29 29 29 29 30
28 30 29 28 29 37 39 31 27 32 38 39 39 40 40 41 41 38 39 40 43 43 43 44 44 42 42 42 42 42 41 41 41 41 41 41 42 40 39 39 38 36 35 33 32 32 31 31 32
31 32 32 30 32 39 40 39 33 34 40 40 41 43 45 45 43 42 42 43 45 47 47 47 47 46 45 45 46 44 42 41 42 43 44 45 44 42 41 41 39 39 37 36 34 33 32 32 33
29 31 31 30 31 39 36 39 35 31 36 41 41 42 44 46 46 47 49 48 50 50 50 50 50 50 51 48 47 46 45 46 45 46 45 45 45 43 43 42 40 40 39 37 36 35 34 34 34
32 33 33 33 32 37 39 37 36 34 31 35 40 41 43 46 47 48 50 52 54 55 55 55 53 52 52 51 50 50 49 49 48 48 47 46 46 47 46 42 42 42 40 38 37 36 35 35 35
32 32 33 34 30 29 37 37 34 31 28 32 36 39 42 47 49 52 54 54 55 56 58 58 58 57 56 54 53 51 52 51 51 49 50 50 52 50 45 42 43 42 41 39 38 38 37 37 36
28 28 32 35 39 40 41 45 38 44 44 42 45 45 44 42 44 48 52 55 55 56 59 59 59 59 57 55 54 52 52 52 51 53 53 52 52 48 45 44 43 43 42 40 40 38 39 39 36
36 37 41 44 46 50 51 52 50 50 55 55 56 55 57 56 53 52 53 51 52 55 58 60 61 61 61 61 58 56 56 54 54 53 52 52 51 48 46 45 43 43 42 41 41 39 40 40 39
43 47 50 51 54 56 61 60 58 60 60 62 67 67 65 64 64 63 63 60 59 57 56 58 61 60 60 59 59 58 56 56 56 54 55 52 51 50 47 45 44 44 43 43 42 41 41 40 39
48 52 55 58 60 60 64 63 56 65 71 72 73 76 80 81 79 75 74 71 65 64 64 61 62 61 61 59 56 56 56 57 56 55 55 53 52 50 47 48 43 44 43 44 44 42 42 41 40
54 57 60 65 67 67 68 72 70 78 83 86 84 85 88 90 92 92 83 77 69 69 68 67 66 61 62 62 56 52 55 57 55 54 52 54 54 50 49 46 44 44 44 44 43 42 42 41 42
61 62 65 71 72 79 79 86 84 85 90 97 98 97 99 102 101 95 89 78 74 63 65 66 68 65 65 63 59 52 55 58 55 51 51 51 51 49 46 45 45 45 44 44 42 42 42 41 43
62 65 69 75 82 88 89 91 97 100 101 104 104 102 102 104 101 88 80 71 69 52 49 56 59 65 68 64 63 58 56 58 58 54 52 51 50 48 47 46 47 46 44 44 42 41 41 42 42
67 73 77 81 85 91 98 96 99 100 100 102 100 101 93 92 84 77 74 75 74 64 56 56 64 64 59 59 61 56 58 58 57 57 54 51 51 50 49 48 48 46 45 43 40 41 41 42 41
75 79 82 90 91 96 100 110 106 109 100 87 84 83 72 71 77 76 71 67 72 73 76 76 70 63 56 60 55 56 58 58 56 56 54 54 53 51 50 48 48 45 44 42 41 40 41 41 40

GFSSGP_500_spd_024.txt.gz
Wind_Speed
7 7 7 7 4 6 6 1 8 8 12 12 11 10 10 7 5 6 2 1 2 4 6 8 10 12 15 17 19 20 21 21 19 17 16 16 16 16 17 16 13 11 11 13 14 14 14 12 9
7 7 8 7 5 6 2 9 13 10 14 14 13 12 12 7 8 6 5 4 3 4 6 7 8 11 12 14 16 18 18 18 18 17 17 16 15 16 17 16 13 9 10 11 12 13 12 11 11
8 6 7 6 6 4 8 9 11 10 14 17 16 15 14 12 11 10 9 7 6 6 7 8 10 10 12 13 14 16 17 16 16 16 16 15 14 15 17 16 13 9 9 10 12 13 12 11 9
7 7 6 7 7 4 17 16 10 14 14 19 20 19 17 15 14 12 12 11 10 9 10 10 11 12 13 13 13 14 15 15 14 14 14 14 13 13 15 15 14 10 8 9 11 12 12 12 9
8 8 8 9 8 3 15 14 15 15 15 18 22 22 19 17 16 14 15 14 13 12 13 12 13 14 15 15 15 14 14 13 14 13 13 13 12 11 12 14 14 13 10 9 10 11 12 12 9
9 9 8 9 12 11 13 14 15 16 18 19 22 24 23 18 17 16 17 17 16 16 15 16 15 16 17 17 17 16 15 14 12 13 12 12 12 12 11 11 13 13 12 10 10 10 11 11 11
11 10 11 10 11 13 14 15 16 16 18 21 21 24 28 22 22 20 19 19 20 19 18 19 17 18 19 18 19 19 16 15 13 12 12 12 12 12 12 12 11 11 11 11 11 10 10 11 12
13 12 13 14 14 14 17 17 18 17 17 21 22 24 30 22 24 22 23 22 22 21 22 19 21 19 20 20 22 21 19 16 15 13 13 12 13 13 13 13 13 12 12 11 11 12 12 12 13
15 15 16 18 19 18 20 21 20 18 19 22 23 26 27 26 23 24 24 25 23 24 23 25 19 23 22 22 22 23 22 20 19 16 15 15 14 15 15 15 15 14 14 14 12 12 13 13 14
17 16 21 22 24 23 23 22 22 21 21 25 26 28 27 26 24 25 24 25 27 27 26 27 26 24 24 24 25 23 23 23 22 22 18 17 17 16 17 16 16 16 15 14 15 14 14 15 15
20 19 22 21 22 22 23 22 23 24 22 27 28 28 31 24 27 27 28 28 28 28 28 30 30 27 27 27 26 26 25 26 25 25 24 21 21 19 20 19 19 18 16 15 14 14 15 15 17
21 22 22 21 21 22 23 22 23 24 23 28 29 28 30 30 21 26 28 28 29 28 29 32 33 32 30 29 27 30 27 29 28 29 28 25 25 24 23 23 22 22 22 20 19 18 17 16 17
22 22 21 20 20 22 22 23 24 21 27 28 30 31 29 32 30 27 28 28 29 29 31 31 34 35 33 33 29 30 30 30 32 30 31 30 29 28 28 26 26 25 25 25 24 24 22 20 20
22 22 22 25 26 27 26 23 26 25 25 25 28 29 30 30 32 33 31 30 32 34 34 33 33 36 36 34 34 32 34 32 35 33 34 35 33 32 32 31 31 30 29 29 28 28 28 26 25
23 24 26 27 28 31 29 23 27 27 25 23 28 30 30 29 32 33 34 35 36 36 39 39 36 34 40 38 36 36 37 36 37 36 37 38 36 35 35 35 34 34 33 32 32 32 32 31 30
23 24 24 27 27 30 29 22 26 30 29 28 28 30 33 33 34 35 36 39 40 41 41 44 44 40 39 46 44 42 39 41 40 40 39 40 39 38 37 37 37 36 37 36 35 35 35 34 33
25 21 23 21 30 31 28 21 23 27 30 30 31 32 34 35 36 37 41 42 44 43 45 46 50 50 45 45 50 48 45 45 45 44 42 42 42 41 40 41 41 39 40 38 37 38 38 36 35
21 26 23 24 24 33 31 27 24 26 29 29 32 34 35 36 40 42 41 40 41 42 44 47 49 54 53 49 53 53 50 48 48 49 47 45 44 44 44 43 43 42 41 40 40 40 39 37 36
23 24 25 24 26 31 29 27 21 20 23 26 30 33 36 36 37 38 35 34 35 38 40 41 43 47 53 51 47 52 54 51 50 51 51 48 46 46 46 45 45 43 43 44 43 43 40 40 37
24 25 24 21 24 28 31 29 33 32 37 33 34 36 40 42 42 39 38 36 33 35 37 38 37 42 45 51 50 47 52 52 51 52 52 49 48 48 49 48 47 46 45 46 45 44 42 41 39
26 30 28 31 30 31 37 35 40 42 43 45 46 46 43 43 42 42 41 46 48 49 51 51 49 46 47 47 47 48 45 51 52 51 52 53 52 52 53 52 49 48 47 46 45 43 44 42 39
30 34 34 35 39 40 39 48 43 50 55 56 56 55 54 52 52 52 54 55 58 59 60 62 60 57 57 56 56 53 51 46 49 51 53 56 54 53 54 54 51 50 49 47 46 45 46 43 40
35 38 40 41 42 47 44 50 46 47 55 57 58 60 61 62 65 66 65 66 64 64 66 68 69 67 66 64 63 64 61 56 52 53 52 55 56 54 55 54 52 51 50 48 47 46 46 45 41
40 42 41 43 46 48 51 55 36 41 56 61 64 66 67 68 70 71 70 70 72 73 74 75 76 73 68 68 64 64 68 67 63 58 55 54 57 58 57 56 54 53 53 52 51 50 47 45 43
46 47 49 50 52 51 51 48 41 50 56 64 67 70 72 73 74 76 76 78 79 81 83 84 78 79 76 75 71 66 68 75 74 66 62 59 56 57 59 59 57 55 54 53 52 51 49 46 44
46 46 46 51 50 51 47 47 44 52 61 65 70 69 70 73 78 82 83 86 89 89 91 88 85 86 76 77 77 72 74 70 73 78 68 66 60 58 58 57 60 59 55 53 53 50 49 47 46
45 46 47 51 52 53 54 53 54 59 71 71 68 67 68 76 83 89 88 91 95 101 102 102 95 93 91 82 78 76 77 77 77 77 71 71 67 61 62 60 60 60 56 52 51 51 50 49 46
42 44 46 50 55 59 60 60 59 59 62 61 62 66 73 77 80 85 86 94 102 106 107 108 112 107 87 80 81 76 83 84 84 81 79 72 69 68 65 62 62 62 56 52 51 50 50 49 46
45 49 53 57 60 63 67 69 68 71 73 75 79 82 89 96 98 101 104 107 103 98 93 91 79 74 70 69 72 80 78 94 95 88 85 75 72 72 69 63 62 64 58 52 51 51 50 48 46
51 55 58 61 63 67 70 73 68 75 79 82 85 92 95 99 100 92 84 75 66 64 61 56 54 53 51 49 49 59 79 84 89 98 93 81 82 78 74 69 61 65 59 50 50 50 49 47 46

GFSSGP_500_spd_027.txt.gz
Wind_Speed
6 6 8 6 6 6 3 5 9 7 9 9 10 10 7 5 5 4 1 1 2 4 6 7 9 11 13 14 16 17 17 18 18 18 18 18 18 18 18 15 12 11 12 14 16 16 14 12 11
6 7 8 6 6 5 8 13 5 3 10 12 12 13 11 8 8 6 3 3 4 2 3 4 6 8 11 13 15 16 16 16 16 17 17 17 17 17 17 16 14 11 11 12 14 15 15 13 11
7 7 7 7 8 9 3 10 10 7 10 14 16 15 14 10 10 10 7 6 6 7 5 6 6 7 10 11 13 14 14 14 14 14 15 15 15 15 16 16 15 12 11 12 12 14 14 15 12
7 6 5 7 11 12 14 6 7 12 9 16 18 19 17 14 14 15 10 9 8 11 10 9 9 9 10 11 11 12 12 12 12 12 13 13 13 13 14 14 15 14 12 11 12 13 13 13 11
6 6 5 7 10 17 17 21 10 14 18 16 19 20 20 20 15 16 14 12 10 13 13 12 12 11 12 11 12 12 11 11 10 10 11 12 12 12 12 12 14 13 13 12 11 11 12 13 10
7 6 7 7 9 11 13 12 11 13 18 21 18 20 22 21 19 16 16 16 12 15 17 15 15 14 14 14 14 13 12 12 11 10 10 11 11 12 12 12 12 13 12 12 12 12 12 13 12
9 8 9 9 10 12 13 13 15 14 18 20 22 22 21 22 21 21 19 20 16 17 20 20 19 17 15 17 16 16 15 13 12 12 10 10 11 12 12 13 12 12 12 12 11 11 12 13 13
12 10 12 14 10 11 15 17 17 18 18 21 22 25 21 22 22 24 23 23 22 18 20 22 24 21 18 18 19 18 18 16 14 13 12 11 12 13 13 13 13 14 13 13 12 11 11 12 12
13 12 15 17 14 15 20 19 23 21 19 21 25 24 23 23 22 22 25 25 24 23 22 23 24 26 22 21 22 22 21 20 18 16 15 14 14 14 14 14 14 14 15 15 14 13 13 13 13
14 14 18 18 19 18 22 21 22 21 22 26 22 29 24 22 23 23 21 23 22 24 25 23 24 25 27 24 24 24 23 23 21 20 19 17 18 17 16 17 16 16 16 16 15 14 14 15 15
16 17 20 21 22 22 20 19 20 19 21 24 24 29 30 26 23 24 27 23 23 24 24 26 25 26 25 28 27 26 26 26 24 25 23 20 21 19 19 19 18 19 18 19 19 18 16 16 16
18 21 22 21 23 21 19 17 18 18 23 23 23 26 30 29 29 27 28 30 28 27 25 29 30 27 26 25 29 29 27 27 27 28 27 23 25 23 23 23 22 22 22 21 22 22 22 20 19
18 21 23 23 21 21 17 20 19 21 23 23 25 24 26 30 30 30 28 31 34 34 31 28 32 32 29 26 27 28 31 30 29 30 30 26 29 27 26 26 26 26 26 24 25 26 25 25 25
20 19 22 23 24 26 24 23 26 26 24 21 24 26 27 29 30 30 32 34 33 36 37 34 31 35 38 32 31 30 30 33 31 32 32 30 32 31 29 29 29 29 29 28 29 30 28 29 29
20 19 23 24 25 26 25 20 25 26 26 24 25 29 30 30 35 37 36 35 36 39 39 39 37 35 38 40 37 35 34 34 34 34 36 35 35 34 32 31 31 32 32 31 32 33 32 31 31
19 19 16 22 23 24 21 13 19 26 27 28 29 31 33 40 39 38 37 36 38 39 43 45 44 41 39 40 43 42 39 39 39 39 39 39 40 39 37 36 35 35 35 35 35 36 34 34 33
19 17 17 17 25 25 20 13 18 24 27 28 31 34 35 36 38 38 37 34 34 37 40 42 43 44 41 40 42 45 45 42 42 43 42 43 44 43 41 40 40 37 37 37 37 37 36 35 35
18 20 19 19 20 26 24 15 17 21 24 27 28 30 31 31 30 32 33 33 33 34 35 37 39 41 43 44 39 40 42 42 43 43 45 45 45 45 43 43 43 41 38 39 38 37 37 37 37
16 18 18 19 22 22 23 21 24 26 29 29 31 32 34 35 36 39 35 31 32 34 34 32 33 34 36 39 43 37 39 44 45 42 43 46 46 46 45 44 45 44 43 43 42 39 39 40 38
20 22 22 21 26 28 29 30 31 34 37 38 39 40 41 44 43 41 38 38 33 36 38 43 46 46 47 48 47 47 42 37 42 44 43 43 46 49 49 49 48 47 47 45 44 43 41 41 39
24 29 28 30 29 31 35 37 40 41 45 48 50 51 51 50 46 45 45 43 43 42 44 47 51 52 51 51 53 56 56 53 46 44 40 41 45 48 50 51 52 51 48 46 46 45 44 44 41
27 32 33 34 37 35 36 40 45 46 49 54 56 56 54 52 49 48 48 49 47 49 50 52 51 54 54 54 56 56 60 62 61 54 51 48 46 46 48 49 52 52 52 50 49 48 48 48 45
35 36 38 40 42 43 42 45 47 53 56 57 57 57 57 58 57 56 57 57 55 53 53 56 57 56 59 61 61 65 63 64 64 66 61 55 52 50 47 47 49 52 52 52 51 48 48 49 48
38 39 39 42 42 41 42 44 49 51 53 56 58 60 61 62 62 63 62 61 62 61 62 64 65 65 66 68 66 66 69 68 69 70 70 63 60 58 52 51 50 51 53 52 52 52 52 50 51
38 39 40 40 40 40 41 45 48 52 54 57 59 61 63 63 65 65 66 65 64 68 71 73 74 74 73 73 74 72 74 75 76 75 77 75 67 62 61 55 54 53 54 55 56 56 54 52 52
37 37 38 41 40 40 38 44 49 52 56 56 58 59 60 64 65 67 72 75 75 75 78 79 79 80 79 80 81 84 84 80 76 77 76 80 80 74 68 59 58 55 57 56 56 57 57 54 51
40 39 41 43 45 49 50 52 58 65 62 60 59 61 62 65 70 74 75 75 77 79 82 86 89 92 95 96 97 96 94 89 81 78 76 81 86 84 76 71 64 59 59 60 58 57 55 55 52
41 40 42 46 52 56 56 59 62 66 63 63 60 58 65 71 71 72 71 70 74 77 83 91 97 99 99 95 88 92 87 81 73 72 78 88 82 86 85 75 70 64 61 63 63 60 56 52 51
43 45 49 52 56 60 60 62 64 64 64 67 69 71 75 78 75 74 79 86 90 93 94 92 89 86 83 78 71 64 60 61 59 66 95 98 103 92 86 82 76 69 67 65 67 63 59 52 50
48 49 53 57 60 65 67 66 64 65 66 69 75 79 82 81 83 84 87 89 90 85 79 67 63 62 58 56 57 53 47 49 50 49 62 77 108 106 101 88 81 75 72 71 70 66 59 53 50

GFSSGP_500_spd_030.txt.gz
Wind_Speed
6 6 7 9 8 7 5 3 7 11 13 12 11 8 7 7 5 6 3 2 1 1 2 4 6 8 10 11 12 13 13 13 14 15 16 16 16 17 18 17 13 12 13 15 16 17 17 14 12
6 7 8 10 11 9 11 9 4 10 13 12 12 11 9 9 9 7 7 4 4 4 4 3 3 5 7 9 11 11 12 12 12 12 14 15 15 15 16 18 16 13 13 13 14 16 17 15 12
7 7 10 12 12 10 11 10 12 9 12 12 11 12 11 12 12 9 10 10 8 7 8 8 7 6 7 8 9 11 11 11 11 11 11 12 13 13 14 15 17 16 14 13 13 14 15 14 12
8 8 9 10 11 11 12 14 10 11 10 12 13 10 14 15 14 14 12 14 14 11 11 11 10 9 8 8 9 9 10 10 11 10 10 10 10 11 12 13 13 15 15 14 13 14 13 12 10
8 9 9 9 11 11 9 12 14 16 15 13 16 16 13 15 17 16 15 16 17 16 14 14 13 13 12 11 10 10 9 10 10 10 10 10 9 9 10 12 12 12 13 14 14 14 12 11 11
8 8 7 8 10 12 10 11 12 12 15 15 16 16 18 17 17 19 15 17 19 20 18 17 17 16 15 15 13 12 11 10 10 10 10 9 9 9 9 10 11 11 11 12 12 13 13 11 11
9 8 9 10 10 12 13 11 13 15 19 20 17 16 16 17 17 18 18 20 20 21 22 21 21 20 18 18 17 15 15 13 12 11 11 11 10 9 10 10 11 11 11 11 11 11 12 11 10
10 11 12 11 10 14 14 15 16 16 18 24 22 18 17 16 19 20 22 20 19 21 22 24 24 24 23 21 21 19 19 17 16 15 14 13 13 12 12 11 11 12 13 12 12 12 12 11 11
12 14 16 14 14 16 18 19 21 21 21 23 23 21 21 19 22 21 22 22 22 23 24 25 26 27 24 23 23 23 22 21 21 19 17 17 16 14 14 13 13 12 13 14 13 13 13 12 12
14 16 16 17 15 15 19 20 20 18 23 26 24 22 19 22 22 25 26 25 22 24 24 26 28 28 27 25 25 26 26 26 25 23 21 20 21 18 17 16 16 16 15 15 16 16 15 14 13
13 17 16 20 19 20 19 20 18 16 22 22 22 26 22 22 23 26 28 30 28 24 24 26 28 29 30 30 29 28 28 28 27 26 25 24 24 23 21 20 20 20 19 18 19 19 19 19 19
14 19 18 21 22 22 19 17 17 22 19 22 24 27 28 27 28 29 30 31 31 31 28 27 29 28 29 30 33 31 29 30 29 30 28 28 27 28 25 24 24 24 23 23 22 22 23 22 22
15 17 19 19 23 20 19 21 19 26 24 25 28 30 35 36 33 31 31 32 34 33 34 33 32 32 30 29 31 33 34 32 32 32 32 31 30 31 30 28 27 27 27 27 27 26 27 27 25
15 14 17 20 23 23 20 22 23 26 25 27 29 35 37 36 35 33 32 31 32 33 33 33 33 35 35 31 30 31 33 35 34 33 34 33 33 33 34 32 31 30 30 30 30 29 30 31 29
14 12 17 18 20 21 19 18 23 26 28 29 31 32 34 35 36 36 35 34 33 34 35 36 35 34 33 34 35 34 34 35 36 37 36 36 36 36 36 35 35 35 34 33 33 33 33 34 34
13 12 14 18 19 17 14 11 22 29 29 29 30 29 29 31 31 31 31 29 29 32 35 34 36 36 36 37 37 35 36 38 38 39 41 41 41 41 41 39 39 39 38 37 36 36 36 36 36
10 9 11 15 19 15 15 13 25 26 26 25 26 25 25 26 28 30 29 29 31 31 31 32 34 35 38 40 41 41 40 39 39 39 39 42 43 44 45 44 42 42 41 40 39 39 39 37 36
11 11 12 14 18 20 21 21 19 22 25 27 28 29 29 31 33 34 36 40 43 42 39 39 38 38 40 40 39 40 40 40 39 40 43 44 43 45 46 46 45 45 44 44 43 42 40 39 39
12 13 13 18 22 23 25 27 27 28 33 34 34 35 37 37 39 41 45 45 39 38 37 38 38 37 38 43 43 42 41 41 40 38 36 39 45 49 48 48 48 48 47 47 47 45 43 44 42
15 17 18 21 24 28 29 33 35 36 37 40 42 42 42 43 43 45 41 39 38 41 39 39 42 41 45 47 50 51 51 50 49 49 45 41 37 41 48 51 51 50 50 50 50 48 47 46 45
20 22 25 26 27 32 34 39 39 41 41 41 42 44 45 45 45 43 42 42 43 42 43 43 44 47 50 52 54 54 52 53 54 52 52 53 49 42 42 44 48 52 52 51 52 52 50 49 48
24 27 30 32 32 32 36 40 42 42 43 42 43 45 45 46 45 46 47 48 49 49 48 49 50 52 53 52 57 62 60 59 58 58 57 55 55 54 48 45 51 50 50 53 53 53 52 52 51
27 29 32 33 34 34 36 40 44 44 44 45 46 49 50 52 55 55 55 54 53 52 52 53 55 55 58 61 58 64 68 66 65 66 64 64 61 57 58 54 50 55 53 51 52 54 54 53 52
28 29 33 33 34 36 37 42 46 47 48 50 52 53 56 59 60 60 57 56 57 58 59 59 61 64 64 66 70 69 74 76 74 73 73 70 69 65 62 62 58 54 57 55 55 55 56 54 53
31 33 34 38 39 41 42 48 48 51 52 53 56 59 62 65 65 64 63 61 61 63 63 65 70 72 74 75 76 79 79 81 83 84 81 77 74 72 70 68 67 63 58 62 58 58 57 56 55
34 35 38 41 43 45 43 49 51 51 55 57 60 62 66 67 68 68 68 68 67 68 69 72 72 74 74 75 77 82 85 87 88 88 86 84 84 83 80 79 75 72 68 64 66 61 61 59 57
39 39 41 44 46 48 49 51 54 56 59 62 64 67 69 68 69 69 70 73 75 79 81 82 82 82 81 83 83 83 83 83 83 83 86 86 86 87 86 84 84 80 76 71 70 68 63 61 59
38 39 42 46 49 53 54 56 55 60 65 66 69 70 70 70 70 70 71 72 76 77 79 79 80 82 85 89 91 90 89 89 91 92 89 85 82 85 89 93 89 86 84 79 72 74 69 66 61
41 43 46 48 49 54 57 58 56 60 63 65 68 66 65 69 72 74 74 75 81 85 88 89 89 89 86 81 77 73 69 65 60 59 60 64 65 72 78 83 88 91 92 85 84 76 75 73 67
42 45 47 50 52 56 60 60 58 59 62 66 65 65 69 73 77 81 87 88 85 85 86 87 85 80 73 68 63 60 57 54 53 52 51 50 55 59 77 94 101 90 95 92 88 82 79 79 74

GFSSGP_500_spd_033.txt.gz
Wind_Speed
7 8 8 10 9 8 5 3 8 9 10 12 9 8 8 7 6 7 6 5 4 4 3 3 4 6 8 9 11 12 12 12 12 13 13 13 14 15 16 17 15 15 15 16 16 18 18 15 13
9 10 11 10 10 7 6 8 6 6 9 11 11 9 9 9 8 10 8 8 8 7 6 6 6 7 7 7 8 9 10 11 11 11 10 12 12 12 14 14 15 15 15 15 14 15 16 14 14
9 11 11 9 8 8 8 6 8 10 10 9 11 10 11 12 13 12 13 13 12 11 10 9 8 8 8 7 6 7 8 10 10 10 10 9 10 11 11 12 13 13 14 14 13 13 12 13 10
10 10 10 7 7 9 9 9 12 13 14 13 10 9 11 10 14 16 18 18 17 15 14 13 12 11 10 10 9 8 7 8 10 9 9 9 8 9 10 10 10 11 11 12 12 12 11 10 10
10 10 8 7 7 8 9 10 11 13 13 10 10 12 14 13 14 15 20 19 20 20 18 17 16 15 13 13 13 12 10 8 9 10 10 10 8 7 9 9 9 9 9 9 10 10 10 10 9
9 9 8 8 9 8 9 10 11 11 12 12 9 11 15 17 16 17 18 22 22 21 21 20 19 19 17 16 16 15 14 13 12 11 11 10 10 9 9 9 9 9 9 9 9 9 8 9 10
11 9 9 8 10 11 12 11 12 14 18 18 13 13 15 17 18 16 19 21 24 25 24 23 23 22 22 21 20 19 18 17 16 15 14 14 13 12 11 10 10 10 11 9 8 8 8 9 9
11 11 11 9 11 15 15 15 15 16 20 24 23 19 18 19 20 18 18 20 22 25 26 27 27 26 26 26 24 24 23 22 21 19 18 18 17 15 15 14 13 11 11 12 11 10 8 7 9
12 13 14 13 13 16 16 17 18 19 23 25 24 21 19 20 22 22 20 19 21 22 24 27 29 28 27 27 27 26 27 26 25 24 23 22 22 20 18 17 17 16 15 14 14 13 12 11 9
12 14 15 16 16 16 18 18 18 21 27 24 22 22 21 18 19 20 22 22 22 23 25 27 29 30 29 30 30 29 29 29 29 28 28 27 27 26 24 23 21 21 20 19 18 18 17 16 15
12 15 16 20 19 19 18 20 20 23 23 25 26 26 25 23 23 24 25 26 25 26 27 29 29 30 31 32 32 32 32 32 31 31 30 29 30 30 29 27 26 25 25 25 23 23 22 21 19
12 15 15 19 21 18 16 19 19 24 22 26 28 27 29 29 28 28 29 29 27 26 25 28 30 32 32 32 32 33 33 33 33 33 33 33 33 34 33 31 30 29 29 29 29 28 27 26 25
13 15 16 18 17 16 14 17 22 27 28 29 31 32 32 31 30 27 26 26 27 26 26 26 26 29 31 32 34 35 35 35 35 35 35 35 36 37 36 35 34 33 32 32 32 32 32 30 30
11 11 15 15 16 15 16 20 24 26 27 28 27 27 28 28 28 28 27 27 27 28 30 28 27 29 30 31 30 33 37 38 37 37 37 37 38 39 39 38 38 36 36 35 35 35 35 35 34
10 12 15 15 17 13 13 18 24 23 24 22 23 24 26 28 28 27 26 26 27 28 29 30 30 29 30 32 33 34 35 38 40 42 41 40 40 41 41 40 41 40 39 38 38 38 38 38 38
11 10 14 16 14 14 14 18 25 27 27 28 27 26 26 26 28 28 28 27 27 27 28 30 32 33 32 32 35 35 37 39 42 43 44 43 43 45 45 45 45 45 43 42 42 42 41 41 41
8 8 12 18 14 15 17 16 20 27 28 28 27 28 30 31 32 32 33 35 35 36 37 38 40 42 42 41 40 41 42 41 41 44 46 48 47 47 48 48 49 49 48 47 46 45 45 43 42
10 10 12 15 17 20 23 21 21 25 29 31 31 32 33 34 36 37 39 41 43 44 45 44 44 43 43 44 44 44 45 44 38 38 38 42 48 51 52 52 52 52 51 49 49 49 48 47 46
10 11 13 18 21 22 24 27 28 28 30 33 34 35 36 37 39 41 42 44 46 48 43 39 42 42 43 44 46 46 46 47 44 44 44 44 43 46 50 51 52 53 54 54 53 52 50 50 50
11 13 16 19 23 25 28 29 29 29 30 32 34 36 37 39 40 41 43 44 44 44 44 45 45 46 46 45 50 51 49 53 55 54 54 52 52 49 47 47 47 50 52 53 53 54 53 53 52
15 17 19 21 25 28 32 32 30 29 30 31 31 33 35 38 40 41 41 43 44 46 48 49 51 52 51 53 55 55 55 58 62 61 62 61 58 57 56 54 52 50 50 49 50 51 52 53 54
18 22 23 24 26 28 31 38 32 33 34 37 38 40 43 45 46 47 48 50 49 48 48 51 55 58 59 59 58 59 60 62 64 65 67 67 67 66 63 61 58 57 57 54 53 52 51 52 55
21 23 25 27 29 29 31 40 38 38 41 45 47 50 53 54 56 57 58 59 59 58 56 55 55 55 56 58 60 63 64 66 67 69 70 70 71 74 73 70 68 64 61 60 58 58 57 55 54
21 24 27 27 30 33 36 40 42 46 50 52 54 56 58 60 61 63 64 63 63 61 58 58 59 59 60 64 67 68 70 72 74 77 78 77 78 78 80 81 77 73 68 62 62 60 61 60 58
23 26 29 33 34 39 40 44 47 51 53 55 58 60 62 63 64 65 68 69 68 65 62 63 63 64 66 68 69 72 75 77 81 84 85 84 84 86 86 86 87 81 77 72 66 65 65 64 63
25 28 33 37 39 40 42 46 49 50 55 57 60 62 64 65 67 70 71 70 68 68 68 69 69 71 76 78 78 76 76 78 80 88 93 94 93 94 94 91 90 89 85 80 77 71 65 67 67
29 33 37 40 43 44 46 47 49 52 56 58 62 63 64 67 69 69 67 68 69 71 72 74 78 81 85 85 83 79 81 84 83 84 85 87 91 97 100 97 94 92 89 86 82 80 76 70 71
34 38 41 43 46 50 50 50 50 55 59 61 63 64 66 67 67 67 68 71 73 76 78 80 82 83 81 82 84 84 86 87 88 87 85 85 86 90 95 101 103 100 96 93 93 88 86 81 74
39 41 43 44 47 52 55 52 51 57 60 63 65 66 67 67 68 70 74 76 77 79 83 87 88 84 83 86 86 87 87 81 70 66 67 70 74 76 80 83 93 103 105 102 97 94 92 90 83
41 44 46 48 51 53 57 54 54 56 60 63 65 66 67 68 70 75 77 78 81 85 89 89 87 85 85 86 85 78 67 60 56 59 61 57 55 54 54 58 62 69 83 93 97 99 100 96 91